Time,TemperatureF,DewpointF,PressureIn,WindDirection,WindDirectionDegrees,WindSpeedMPH,WindSpeedGustMPH,Humidity,HourlyPrecipIn,Conditions,Clouds,dailyrainin,SoftwareType,DateUTC
2013-06-10 00:07:00,54.7,54.0,29.88,SE,126,0.0,-999.0,98,-99.99,,,0.00,weatherlink.com 1.10,2013-06-10 07:07:00,
2013-06-10 00:22:00,54.7,54.0,29.87,South,181,1.0,-999.0,97,-99.99,,,0.00,weatherlink.com 1.10,2013-06-10 07:22:00,
2013-06-10 00:37:00,54.7,54.0,29.86,SSW,200,0.0,-999.0,97,-99.99,,,0.00,weatherlink.com 1.10,2013-06-10 07:37:00,
2013-06-10 00:52:00,54.7,54.0,29.87,SE,133,0.0,-999.0,97,-99.99,,,0.00,weatherlink.com 1.10,2013-06-10 07:52:00,
2013-06-10 01:07:00,54.7,54.0,29.88,SE,133,0.0,-999.0,96,-99.99,,,0.00,weatherlink.com 1.10,2013-06-10 08:07:00,
2013-06-10 01:22:00,54.7,53.0,29.88,SE,132,0.0,-999.0,95,-99.99,,,0.00,weatherlink.com 1.10,2013-06-10 08:22:00,
2013-06-10 01:37:00,54.7,53.0,29.88,SSE,154,0.0,-999.0,95,-99.99,,,0.00,weatherlink.com 1.10,2013-06-10 08:37:00,
2013-06-10 01:52:00,54.5,53.0,29.86,SSW,195,2.0,-999.0,95,-99.99,,,0.00,weatherlink.com 1.10,2013-06-10 08:52:00,
2013-06-10 02:07:00,54.5,54.0,29.85,SW,236,0.0,-999.0,97,-99.99,,,0.01,weatherlink.com 1.10,2013-06-10 09:07:00,
2013-06-10 02:10:00,-999.0,-99.9,0.00,North,-999,-999.0,-999.0,-999,-99.99,,,0.00,weatherlink.com 1.10,2013-06-10 09:10:00,
2013-06-10 02:23:00,-999.0,-99.9,29.80,North,-999,-999.0,-999.0,-999,-99.99,,,0.00,weatherlink.com 1.10,2013-06-10 09:23:00,
2013-06-10 02:38:00,54.1,54.0,29.79,South,188,1.0,-999.0,99,-99.99,,,0.00,weatherlink.com 1.10,2013-06-10 09:38:00,
2013-06-10 02:53:00,54.1,54.0,29.83,ENE,65,0.0,-999.0,99,-99.99,,,0.01,weatherlink.com 1.10,2013-06-10 09:53:00,
2013-06-10 03:08:00,54.1,54.0,29.84,ESE,118,0.0,-999.0,100,-99.99,,,0.01,weatherlink.com 1.10,2013-06-10 10:08:00,
2013-06-10 03:23:00,54.1,54.0,29.85,ESE,119,1.0,-999.0,100,-99.99,,,0.01,weatherlink.com 1.10,2013-06-10 10:23:00,
2013-06-10 03:38:00,54.1,54.0,29.85,ESE,103,0.0,-999.0,100,-99.99,,,0.01,weatherlink.com 1.10,2013-06-10 10:38:00,
2013-06-10 03:53:00,54.1,54.0,29.84,ESE,103,1.0,-999.0,100,-99.99,,,0.01,weatherlink.com 1.10,2013-06-10 10:53:00,
2013-06-10 04:08:00,53.9,54.0,29.84,ESE,103,0.0,-999.0,100,-99.99,,,0.02,weatherlink.com 1.10,2013-06-10 11:08:00,
2013-06-10 04:23:00,53.9,54.0,29.85,SW,219,0.0,-999.0,100,-99.99,,,0.02,weatherlink.com 1.10,2013-06-10 11:23:00,
2013-06-10 04:38:00,53.9,54.0,29.85,SW,219,0.0,-999.0,100,-99.99,,,0.03,weatherlink.com 1.10,2013-06-10 11:38:00,
2013-06-10 04:53:00,53.9,54.0,29.85,SW,219,2.0,-999.0,100,-99.99,,,0.03,weatherlink.com 1.10,2013-06-10 11:53:00,
2013-06-10 05:08:00,54.1,54.0,29.84,South,190,0.0,-999.0,100,-99.99,,,0.03,weatherlink.com 1.10,2013-06-10 12:08:00,
2013-06-10 05:23:00,53.9,54.0,29.83,South,186,3.0,-999.0,100,-99.99,,,0.03,weatherlink.com 1.10,2013-06-10 12:23:00,
2013-06-10 05:38:00,53.8,54.0,29.85,NW,305,0.0,-999.0,100,-99.99,,,0.03,weatherlink.com 1.10,2013-06-10 12:38:00,
2013-06-10 05:53:00,53.6,54.0,29.85,NW,305,0.0,-999.0,100,-99.99,,,0.03,weatherlink.com 1.10,2013-06-10 12:53:00,
2013-06-10 06:08:00,53.8,54.0,29.85,NW,305,0.0,-999.0,100,-99.99,,,0.03,weatherlink.com 1.10,2013-06-10 13:08:00,
2013-06-10 06:23:00,53.8,54.0,29.86,NW,305,0.0,-999.0,100,-99.99,,,0.03,weatherlink.com 1.10,2013-06-10 13:23:00,
2013-06-10 06:38:00,53.8,54.0,29.86,East,96,0.0,-999.0,100,-99.99,,,0.03,weatherlink.com 1.10,2013-06-10 13:38:00,
2013-06-10 06:53:00,53.8,54.0,29.85,East,96,0.0,-999.0,100,-99.99,,,0.03,weatherlink.com 1.10,2013-06-10 13:53:00,
2013-06-10 07:08:00,53.8,54.0,29.86,East,96,0.0,-999.0,100,-99.99,,,0.03,weatherlink.com 1.10,2013-06-10 14:08:00,
2013-06-10 07:23:00,53.9,54.0,29.86,East,96,0.0,-999.0,100,-99.99,,,0.03,weatherlink.com 1.10,2013-06-10 14:23:00,
2013-06-10 07:38:00,54.2,54.0,29.87,East,96,0.0,-999.0,100,-99.99,,,0.03,weatherlink.com 1.10,2013-06-10 14:38:00,
2013-06-10 07:53:00,54.4,54.0,29.87,East,96,0.0,-999.0,100,-99.99,,,0.04,weatherlink.com 1.10,2013-06-10 14:53:00,
2013-06-10 08:08:00,54.5,55.0,29.88,East,96,0.0,-999.0,100,-99.99,,,0.04,weatherlink.com 1.10,2013-06-10 15:08:00,
2013-06-10 08:23:00,54.8,55.0,29.87,East,96,1.0,-999.0,100,-99.99,,,0.04,weatherlink.com 1.10,2013-06-10 15:23:00,
2013-06-10 08:38:00,55.1,55.0,29.88,East,96,0.0,-999.0,100,-99.99,,,0.04,weatherlink.com 1.10,2013-06-10 15:38:00,
2013-06-10 08:53:00,55.1,55.0,29.88,East,96,0.0,-999.0,100,-99.99,,,0.04,weatherlink.com 1.10,2013-06-10 15:53:00,
2013-06-10 09:08:00,55.1,55.0,29.88,East,96,0.0,-999.0,100,-99.99,,,0.04,weatherlink.com 1.10,2013-06-10 16:08:00,
2013-06-10 09:23:00,55.3,55.0,29.88,ESE,117,0.0,-999.0,100,-99.99,,,0.05,weatherlink.com 1.10,2013-06-10 16:23:00,
2013-06-10 09:38:00,55.4,55.0,29.88,ESE,117,0.0,-999.0,100,-99.99,,,0.05,weatherlink.com 1.10,2013-06-10 16:38:00,
2013-06-10 09:53:00,55.5,56.0,29.88,ESE,117,0.0,-999.0,100,-99.99,,,0.05,weatherlink.com 1.10,2013-06-10 16:53:00,
2013-06-10 10:08:00,55.8,56.0,29.91,ESE,117,0.0,-999.0,100,-99.99,,,0.05,weatherlink.com 1.10,2013-06-10 17:08:00,
2013-06-10 10:23:00,56.0,56.0,29.91,SSW,193,2.0,-999.0,100,-99.99,,,0.05,weatherlink.com 1.10,2013-06-10 17:23:00,
2013-06-10 10:38:00,55.8,56.0,29.91,South,170,0.0,-999.0,100,-99.99,,,0.05,weatherlink.com 1.10,2013-06-10 17:38:00,
2013-06-10 10:54:00,56.1,56.0,29.92,South,170,0.0,-999.0,100,-99.99,,,0.05,weatherlink.com 1.10,2013-06-10 17:54:00,
2013-06-10 11:09:00,56.6,57.0,29.93,South,170,2.0,-999.0,100,-99.99,,,0.05,weatherlink.com 1.10,2013-06-10 18:09:00,
2013-06-10 11:24:00,56.8,57.0,29.92,SW,226,3.0,-999.0,100,-99.99,,,0.05,weatherlink.com 1.10,2013-06-10 18:24:00,
2013-06-10 11:39:00,56.6,57.0,29.93,SSW,202,3.0,-999.0,100,-99.99,,,0.05,weatherlink.com 1.10,2013-06-10 18:39:00,
2013-06-10 11:54:00,56.6,56.0,29.93,SSE,158,5.0,-999.0,96,-99.99,,,0.05,weatherlink.com 1.10,2013-06-10 18:54:00,
2013-06-10 12:09:00,56.9,55.0,29.93,South,179,1.0,-999.0,93,-99.99,,,0.05,weatherlink.com 1.10,2013-06-10 19:09:00,
2013-06-10 12:24:00,56.9,55.0,29.94,South,178,0.0,-999.0,92,-99.99,,,0.05,weatherlink.com 1.10,2013-06-10 19:24:00,
2013-06-10 12:39:00,57.4,55.0,29.94,SSW,194,0.0,-999.0,92,-99.99,,,0.05,weatherlink.com 1.10,2013-06-10 19:39:00,
2013-06-10 12:54:00,57.4,55.0,29.94,SSW,204,6.0,-999.0,90,-99.99,,,0.05,weatherlink.com 1.10,2013-06-10 19:54:00,
2013-06-10 13:09:00,57.1,54.0,29.94,SSW,199,5.0,-999.0,90,-99.99,,,0.05,weatherlink.com 1.10,2013-06-10 20:09:00,
2013-06-10 13:24:00,57.1,54.0,29.94,South,171,1.0,-999.0,90,-99.99,,,0.05,weatherlink.com 1.10,2013-06-10 20:24:00,
2013-06-10 13:39:00,57.4,55.0,29.94,SW,235,3.0,-999.0,90,-99.99,,,0.05,weatherlink.com 1.10,2013-06-10 20:39:00,
2013-06-10 13:54:00,57.4,55.0,29.95,SW,217,0.0,-999.0,90,-99.99,,,0.05,weatherlink.com 1.10,2013-06-10 20:54:00,
2013-06-10 14:09:00,57.2,54.0,29.95,SW,224,4.0,-999.0,88,-99.99,,,0.00,weatherlink.com 1.10,2013-06-10 21:09:00,
2013-06-10 14:24:00,57.8,54.0,29.95,SSW,199,2.0,-999.0,88,-99.99,,,0.00,weatherlink.com 1.10,2013-06-10 21:24:00,
2013-06-10 14:39:00,58.0,54.0,29.95,South,178,2.0,-999.0,86,-99.99,,,0.00,weatherlink.com 1.10,2013-06-10 21:39:00,
2013-06-10 14:54:00,58.4,54.0,29.96,SSE,159,4.0,-999.0,84,-99.99,,,0.00,weatherlink.com 1.10,2013-06-10 21:54:00,
2013-06-10 15:09:00,58.9,53.0,29.95,South,175,7.0,-999.0,82,-99.99,,,0.00,weatherlink.com 1.10,2013-06-10 22:09:00,
2013-06-10 15:24:00,59.3,54.0,29.95,SSW,211,2.0,-999.0,83,-99.99,,,0.00,weatherlink.com 1.10,2013-06-10 22:24:00,
2013-06-10 15:39:00,60.3,54.0,29.94,South,182,4.0,-999.0,81,-99.99,,,0.00,weatherlink.com 1.10,2013-06-10 22:39:00,
2013-06-10 15:54:00,60.3,54.0,29.95,South,186,1.0,-999.0,79,-99.99,,,0.00,weatherlink.com 1.10,2013-06-10 22:54:00,
2013-06-10 16:09:00,59.3,54.0,29.95,South,181,0.0,-999.0,81,-99.99,,,0.00,weatherlink.com 1.10,2013-06-10 23:09:00,
2013-06-10 16:24:00,59.7,54.0,29.95,SSE,148,4.0,-999.0,81,-99.99,,,0.00,weatherlink.com 1.10,2013-06-10 23:24:00,
2013-06-10 16:39:00,59.3,54.0,29.95,SSE,151,1.0,-999.0,81,-99.99,,,0.00,weatherlink.com 1.10,2013-06-10 23:39:00,
2013-06-10 16:54:00,59.2,53.0,29.95,SE,124,0.0,-999.0,81,-99.99,,,0.00,weatherlink.com 1.10,2013-06-10 23:54:00,
2013-06-10 17:09:00,59.2,53.0,29.94,SSE,154,3.0,-999.0,81,-99.99,,,0.00,weatherlink.com 1.10,2013-06-11 00:09:00,
2013-06-10 17:24:00,59.0,53.0,29.94,SSE,155,2.0,-999.0,81,-99.99,,,0.00,weatherlink.com 1.10,2013-06-11 00:24:00,
2013-06-10 17:39:00,59.7,54.0,29.94,East,90,1.0,-999.0,80,-99.99,,,0.00,weatherlink.com 1.10,2013-06-11 00:39:00,
2013-06-10 17:54:00,60.0,53.0,29.94,SE,145,1.0,-999.0,78,-99.99,,,0.00,weatherlink.com 1.10,2013-06-11 00:54:00,
2013-06-10 18:09:00,60.0,53.0,29.94,ESE,123,3.0,-999.0,78,-99.99,,,0.00,weatherlink.com 1.10,2013-06-11 01:09:00,
2013-06-10 18:24:00,59.3,53.0,29.93,SSE,156,0.0,-999.0,79,-99.99,,,0.00,weatherlink.com 1.10,2013-06-11 01:24:00,
2013-06-10 18:39:00,59.3,53.0,29.93,South,188,2.0,-999.0,79,-99.99,,,0.00,weatherlink.com 1.10,2013-06-11 01:39:00,
2013-06-10 18:54:00,59.3,53.0,29.93,NE,49,0.0,-999.0,79,-99.99,,,0.00,weatherlink.com 1.10,2013-06-11 01:54:00,
2013-06-10 19:09:00,59.3,53.0,29.93,ENE,59,1.0,-999.0,79,-99.99,,,0.00,weatherlink.com 1.10,2013-06-11 02:09:00,
2013-06-10 19:24:00,59.3,52.0,29.93,South,175,0.0,-999.0,78,-99.99,,,0.00,weatherlink.com 1.10,2013-06-11 02:24:00,
2013-06-10 19:39:00,59.0,53.0,29.93,South,175,0.0,-999.0,80,-99.99,,,0.00,weatherlink.com 1.10,2013-06-11 02:39:00,
2013-06-10 19:54:00,58.9,52.0,29.93,South,175,0.0,-999.0,79,-99.99,,,0.00,weatherlink.com 1.10,2013-06-11 02:54:00,
2013-06-10 20:09:00,59.0,54.0,29.93,South,175,0.0,-999.0,83,-99.99,,,0.00,weatherlink.com 1.10,2013-06-11 03:09:00,
2013-06-10 20:24:00,58.9,54.0,29.94,South,175,0.0,-999.0,83,-99.99,,,0.00,weatherlink.com 1.10,2013-06-11 03:24:00,
2013-06-10 20:39:00,58.4,54.0,29.93,South,175,0.0,-999.0,85,-99.99,,,0.00,weatherlink.com 1.10,2013-06-11 03:39:00,
2013-06-10 20:54:00,58.0,54.0,29.93,South,175,0.0,-999.0,87,-99.99,,,0.00,weatherlink.com 1.10,2013-06-11 03:54:00,
2013-06-10 21:09:00,57.4,53.0,29.93,South,175,0.0,-999.0,86,-99.99,,,0.00,weatherlink.com 1.10,2013-06-11 04:09:00,
2013-06-10 21:24:00,57.1,54.0,29.94,South,175,0.0,-999.0,88,-99.99,,,0.00,weatherlink.com 1.10,2013-06-11 04:24:00,
2013-06-10 21:39:00,56.6,54.0,29.94,South,175,0.0,-999.0,89,-99.99,,,0.00,weatherlink.com 1.10,2013-06-11 04:39:00,
2013-06-10 21:54:00,56.1,53.0,29.95,South,175,0.0,-999.0,90,-99.99,,,0.00,weatherlink.com 1.10,2013-06-11 04:54:00,
2013-06-10 22:09:00,55.5,53.0,29.96,South,175,0.0,-999.0,92,-99.99,,,0.00,weatherlink.com 1.10,2013-06-11 05:09:00,
2013-06-10 22:24:00,55.0,53.0,29.96,South,175,0.0,-999.0,93,-99.99,,,0.00,weatherlink.com 1.10,2013-06-11 05:24:00,
2013-06-10 22:39:00,54.5,53.0,29.96,South,175,0.0,-999.0,94,-99.99,,,0.00,weatherlink.com 1.10,2013-06-11 05:39:00,
2013-06-10 22:54:00,54.7,53.0,29.96,South,175,0.0,-999.0,95,-99.99,,,0.00,weatherlink.com 1.10,2013-06-11 05:54:00,
2013-06-10 23:09:00,54.5,53.0,29.95,South,175,0.0,-999.0,95,-99.99,,,0.00,weatherlink.com 1.10,2013-06-11 06:09:00,
2013-06-10 23:24:00,53.9,53.0,29.95,South,178,0.0,-999.0,95,-99.99,,,0.00,weatherlink.com 1.10,2013-06-11 06:24:00,
2013-06-10 23:39:00,53.9,53.0,29.95,WNW,284,0.0,-999.0,97,-99.99,,,0.00,weatherlink.com 1.10,2013-06-11 06:39:00,
2013-06-10 23:54:00,53.9,53.0,29.95,WNW,293,0.0,-999.0,98,-99.99,,,0.00,weatherlink.com 1.10,2013-06-11 06:54:00,